QPF
0.00 0.00 0.00 0.00 0.00 0.00 0.00 0.00 0.00 0.00 0.00 0.00 0.00 0.00 0.00 0.00 0.00 0.00 0.00 0.00 0.00 0.00 0.00 0.00 0.00 0.00 0.00 0.00 0.00 0.00 0.00 0.00 0.00 0.00 0.00 0.01 0.00 0.01 0.01 0.00 0.00 0.01 0.01 0.01
0.00 0.00 0.00 0.00 0.00 0.00 0.00 0.00 0.00 0.00 0.00 0.00 0.00 0.00 0.00 0.00 0.00 0.00 0.00 0.00 0.00 0.00 0.00 0.00 0.00 0.00 0.00 0.00 0.00 0.00 0.00 0.00 0.00 0.01 0.00 0.00 0.00 0.00 0.00 0.00 0.00 0.00 0.00 0.00
0.00 0.00 0.00 0.00 0.00 0.00 0.00 0.00 0.00 0.00 0.00 0.00 0.00 0.00 0.00 0.00 0.00 0.00 0.00 0.00 0.00 0.00 0.00 0.00 0.00 0.00 0.00 0.00 0.00 0.00 0.00 0.00 0.00 0.02 0.02 0.01 0.00 0.00 0.00 0.00 0.00 0.00 0.00 0.00
0.00 0.00 0.00 0.00 0.00 0.00 0.00 0.00 0.00 0.00 0.00 0.00 0.00 0.00 0.00 0.00 0.00 0.00 0.00 0.00 0.00 0.00 0.00 0.00 0.00 0.00 0.00 0.00 0.00 0.00 0.00 0.00 0.00 0.01 0.02 0.03 0.03 0.01 0.01 0.00 0.00 0.00 0.00 0.00
0.00 0.00 0.00 0.00 0.00 0.00 0.00 0.00 0.00 0.00 0.00 0.00 0.00 0.00 0.00 0.00 0.00 0.00 0.00 0.00 0.00 0.00 0.00 0.00 0.00 0.00 0.00 0.00 0.00 0.00 0.00 0.00 0.01 0.01 0.00 0.02 0.03 0.01 0.02 0.02 0.01 0.00 0.00 0.00
0.00 0.00 0.00 0.00 0.00 0.00 0.00 0.00 0.00 0.00 0.00 0.00 0.00 0.00 0.00 0.00 0.00 0.00 0.00 0.00 0.00 0.00 0.00 0.00 0.00 0.00 0.00 0.00 0.00 0.00 0.00 0.01 0.01 0.01 0.01 0.00 0.03 0.01 0.01 0.02 0.01 0.01 0.00 0.00
0.00 0.00 0.00 0.00 0.00 0.00 0.00 0.00 0.00 0.00 0.00 0.00 0.00 0.00 0.00 0.00 0.00 0.00 0.00 0.00 0.00 0.00 0.00 0.00 0.00 0.00 0.00 0.00 0.00 0.00 0.00 0.00 0.00 0.00 0.00 0.01 0.01 0.02 0.02 0.02 0.02 0.03 0.02 0.01
0.00 0.00 0.00 0.00 0.00 0.00 0.00 0.00 0.00 0.00 0.00 0.00 0.00 0.00 0.00 0.00 0.00 0.00 0.00 0.00 0.00 0.00 0.00 0.00 0.00 0.00 0.00 0.00 0.00 0.00 0.00 0.00 0.00 0.00 0.00 0.00 0.03 0.03 0.02 0.01 0.03 0.03 0.03 0.01
0.00 0.00 0.00 0.00 0.00 0.00 0.00 0.00 0.00 0.00 0.00 0.00 0.00 0.00 0.00 0.00 0.00 0.00 0.00 0.00 0.00 0.00 0.00 0.00 0.00 0.00 0.00 0.00 0.00 0.00 0.00 0.00 0.00 0.00 0.00 0.00 0.01 0.03 0.02 0.01 0.01 0.01 0.01 0.00
0.00 0.00 0.00 0.00 0.00 0.00 0.00 0.00 0.00 0.00 0.00 0.00 0.00 0.00 0.00 0.00 0.00 0.00 0.00 0.00 0.00 0.00 0.00 0.00 0.00 0.00 0.00 0.00 0.00 0.00 0.00 0.00 0.00 0.00 0.00 0.00 0.01 0.01 0.00 0.00 0.00 0.01 0.03 0.04
0.00 0.00 0.00 0.00 0.00 0.00 0.00 0.00 0.00 0.00 0.00 0.00 0.00 0.00 0.00 0.00 0.00 0.00 0.00 0.00 0.00 0.00 0.00 0.00 0.00 0.00 0.00 0.00 0.00 0.00 0.00 0.00 0.00 0.01 0.00 0.01 0.02 0.01 0.00 0.00 0.00 0.00 0.02 0.04
0.00 0.00 0.00 0.00 0.00 0.00 0.00 0.00 0.00 0.00 0.00 0.00 0.00 0.00 0.00 0.00 0.00 0.00 0.00 0.00 0.00 0.00 0.00 0.00 0.00 0.00 0.00 0.00 0.00 0.00 0.00 0.00 0.01 0.01 0.03 0.05 0.07 0.04 0.00 0.00 0.00 0.00 0.00 0.01
0.00 0.00 0.00 0.00 0.00 0.00 0.00 0.00 0.00 0.00 0.00 0.00 0.00 0.00 0.00 0.00 0.00 0.00 0.00 0.00 0.00 0.00 0.00 0.00 0.00 0.00 0.00 0.00 0.00 0.00 0.00 0.00 0.00 0.02 0.07 0.08 0.11 0.14 0.08 0.01 0.03 0.00 0.00 0.00
0.00 0.00 0.00 0.00 0.00 0.00 0.00 0.00 0.00 0.00 0.00 0.00 0.00 0.00 0.00 0.00 0.00 0.00 0.00 0.00 0.00 0.00 0.00 0.00 0.00 0.00 0.00 0.00 0.00 0.00 0.00 0.00 0.00 0.02 0.05 0.09 0.12 0.12 0.08 0.04 0.02 0.01 0.03 0.01
0.00 0.00 0.00 0.00 0.00 0.00 0.00 0.00 0.00 0.00 0.00 0.00 0.00 0.00 0.00 0.00 0.00 0.00 0.00 0.00 0.00 0.00 0.00 0.00 0.00 0.00 0.00 0.00 0.00 0.00 0.00 0.00 0.00 0.00 0.03 0.06 0.09 0.11 0.07 0.03 0.02 0.01 0.01 0.06
0.00 0.00 0.00 0.00 0.00 0.00 0.00 0.00 0.00 0.00 0.00 0.00 0.00 0.00 0.00 0.00 0.00 0.00 0.00 0.00 0.00 0.00 0.00 0.00 0.00 0.00 0.00 0.00 0.00 0.00 0.00 0.00 0.00 0.00 0.01 0.02 0.10 0.17 0.19 0.14 0.11 0.11 0.02 0.04
0.00 0.00 0.00 0.00 0.00 0.00 0.00 0.00 0.00 0.00 0.00 0.00 0.00 0.00 0.00 0.00 0.00 0.00 0.00 0.00 0.00 0.00 0.00 0.00 0.00 0.00 0.00 0.00 0.00 0.00 0.00 0.00 0.00 0.00 0.00 0.01 0.03 0.06 0.06 0.08 0.12 0.09 0.12 0.13
0.00 0.00 0.00 0.00 0.00 0.00 0.00 0.00 0.00 0.00 0.00 0.00 0.00 0.00 0.00 0.00 0.00 0.00 0.00 0.00 0.00 0.00 0.00 0.00 0.00 0.00 0.00 0.00 0.00 0.00 0.00 0.00 0.00 0.00 0.00 0.00 0.00 0.00 0.00 0.00 0.02 0.04 0.07 0.15
0.00 0.00 0.00 0.00 0.00 0.00 0.00 0.00 0.00 0.00 0.00 0.00 0.00 0.00 0.00 0.00 0.00 0.00 0.00 0.00 0.00 0.00 0.00 0.00 0.00 0.00 0.00 0.00 0.00 0.00 0.00 0.00 0.00 0.00 0.00 0.00 0.00 0.00 0.00 0.00 0.00 0.00 0.00 0.01
0.00 0.00 0.00 0.00 0.00 0.00 0.00 0.00 0.00 0.00 0.00 0.00 0.00 0.00 0.00 0.00 0.00 0.00 0.00 0.00 0.00 0.00 0.00 0.00 0.00 0.00 0.00 0.00 0.00 0.00 0.00 0.00 0.00 0.00 0.00 0.00 0.00 0.00 0.00 0.00 0.00 0.00 0.00 0.00
0.00 0.00 0.00 0.00 0.00 0.00 0.00 0.00 0.00 0.00 0.00 0.00 0.00 0.00 0.00 0.00 0.00 0.00 0.00 0.00 0.00 0.00 0.00 0.00 0.00 0.00 0.00 0.00 0.00 0.00 0.00 0.00 0.00 0.00 0.00 0.00 0.00 0.00 0.00 0.00 0.00 0.00 0.00 0.00
0.00 0.00 0.00 0.00 0.00 0.00 0.00 0.00 0.00 0.00 0.00 0.00 0.00 0.00 0.00 0.00 0.00 0.00 0.00 0.00 0.00 0.00 0.00 0.00 0.00 0.00 0.00 0.00 0.00 0.00 0.00 0.00 0.00 0.00 0.00 0.00 0.00 0.00 0.00 0.00 0.00 0.00 0.00 0.00
0.00 0.00 0.00 0.00 0.00 0.00 0.00 0.00 0.00 0.00 0.00 0.00 0.00 0.00 0.00 0.00 0.00 0.00 0.00 0.00 0.00 0.00 0.00 0.00 0.00 0.00 0.00 0.00 0.00 0.00 0.00 0.00 0.00 0.00 0.00 0.00 0.00 0.00 0.00 0.00 0.00 0.00 0.00 0.00
0.01 0.01 0.00 0.00 0.00 0.00 0.00 0.00 0.00 0.00 0.00 0.00 0.00 0.00 0.00 0.00 0.00 0.00 0.00 0.00 0.00 0.00 0.00 0.00 0.00 0.00 0.00 0.00 0.00 0.00 0.00 0.00 0.00 0.00 0.00 0.00 0.00 0.00 0.00 0.00 0.00 0.00 0.00 0.00
0.05 0.05 0.04 0.02 0.00 0.00 0.00 0.00 0.00 0.00 0.00 0.00 0.00 0.00 0.00 0.00 0.00 0.00 0.00 0.00 0.00 0.00 0.00 0.00 0.00 0.00 0.00 0.00 0.00 0.00 0.00 0.00 0.00 0.00 0.00 0.00 0.00 0.00 0.00 0.00 0.00 0.00 0.00 0.00
0.01 0.02 0.04 0.05 0.01 0.00 0.00 0.00 0.00 0.00 0.00 0.00 0.00 0.00 0.00 0.00 0.00 0.00 0.00 0.00 0.00 0.00 0.00 0.00 0.00 0.00 0.00 0.00 0.00 0.00 0.00 0.00 0.00 0.00 0.00 0.00 0.00 0.00 0.00 0.00 0.00 0.00 0.00 0.00
0.00 0.01 0.02 0.06 0.03 0.01 0.01 0.00 0.00 0.00 0.00 0.00 0.00 0.00 0.00 0.00 0.00 0.00 0.00 0.00 0.00 0.00 0.00 0.00 0.00 0.00 0.00 0.00 0.00 0.00 0.00 0.00 0.00 0.00 0.00 0.00 0.00 0.00 0.00 0.00 0.00 0.00 0.00 0.00
MSLP
1001.80 1003.89 1004.20 1002.44 1001.97 1002.25 1002.59 1002.75 1003.02 1003.37 1004.14 1004.96 1007.24 1008.61 1009.74 1010.70 1011.35 1011.77 1012.00 1012.36 1012.91 1013.37 1013.71 1013.84 1013.83 1013.94 1013.84 1013.62 1013.18 1012.83 1012.48 1012.22 1011.96 1011.51 1011.51 1011.53 1011.52 1011.43 1011.46 1011.42 1011.17 1010.94 1010.77 1010.64
1002.31 1002.72 1002.97 1002.74 1002.60 1002.96 1003.18 1003.60 1004.02 1004.56 1005.23 1006.14 1008.44 1009.69 1010.23 1010.75 1011.49 1012.10 1012.59 1012.91 1013.48 1013.92 1014.09 1014.06 1014.09 1014.11 1014.02 1013.77 1013.31 1013.00 1012.72 1012.24 1011.80 1011.56 1011.42 1011.33 1011.16 1011.04 1011.02 1010.94 1010.86 1010.74 1010.58 1010.29
1002.47 1002.42 1003.10 1003.10 1002.72 1002.70 1003.61 1004.33 1005.11 1005.09 1006.32 1007.81 1008.82 1009.86 1010.55 1011.28 1012.01 1012.76 1013.45 1013.82 1014.09 1014.30 1014.37 1014.36 1014.31 1014.22 1013.95 1013.79 1013.60 1013.23 1012.85 1012.28 1011.74 1011.49 1011.41 1011.18 1010.94 1010.84 1010.58 1010.34 1010.14 1010.03 1009.76 1009.63
1002.82 1003.02 1003.14 1002.81 1004.04 1004.15 1004.47 1004.99 1005.76 1006.54 1007.62 1008.84 1009.66 1010.60 1011.26 1011.80 1012.85 1013.61 1013.99 1014.16 1014.31 1014.38 1014.39 1014.55 1014.61 1014.48 1014.47 1014.20 1013.64 1013.36 1012.92 1012.41 1011.89 1011.42 1011.22 1011.03 1010.84 1010.51 1010.23 1010.10 1009.86 1009.52 1009.07 1008.87
1003.14 1002.94 1003.00 1003.40 1004.47 1004.92 1005.30 1005.55 1006.22 1007.17 1008.22 1009.50 1010.47 1011.03 1011.96 1012.88 1013.48 1013.86 1014.10 1014.27 1014.45 1014.57 1014.69 1014.77 1014.69 1014.72 1014.88 1014.80 1014.38 1013.70 1013.10 1012.70 1012.20 1011.81 1011.47 1011.04 1010.52 1010.07 1009.63 1009.56 1009.28 1008.69 1008.38 1008.18
1003.63 1003.51 1003.46 1004.45 1005.22 1005.94 1006.39 1006.30 1006.62 1008.19 1009.08 1010.04 1010.81 1010.82 1012.11 1013.13 1013.57 1013.96 1014.37 1014.86 1015.10 1014.98 1014.75 1014.77 1014.96 1014.94 1014.83 1014.79 1014.61 1014.06 1013.71 1013.39 1012.77 1012.37 1011.76 1011.20 1010.56 1010.18 1009.64 1009.27 1008.87 1008.47 1008.14 1007.80
1003.83 1003.95 1003.84 1005.28 1006.38 1006.65 1007.06 1008.09 1008.57 1009.20 1010.24 1011.00 1011.52 1012.27 1012.87 1013.25 1013.74 1014.15 1014.48 1014.75 1015.14 1015.12 1015.12 1015.22 1015.66 1015.51 1015.18 1014.85 1014.50 1014.39 1014.05 1013.70 1013.34 1012.76 1012.11 1011.29 1010.57 1010.03 1009.58 1009.01 1008.45 1008.13 1007.90 1007.73
1003.93 1003.98 1004.65 1006.28 1007.15 1007.14 1008.43 1009.11 1009.71 1010.62 1011.35 1012.00 1012.59 1013.04 1013.33 1013.65 1013.99 1014.39 1014.73 1015.00 1015.45 1015.40 1015.45 1015.84 1016.04 1015.88 1015.35 1015.19 1014.82 1014.54 1014.14 1013.65 1013.12 1012.74 1011.97 1010.87 1010.11 1009.64 1009.09 1008.50 1007.96 1007.53 1007.30 1006.88
1004.67 1005.31 1006.36 1007.02 1007.50 1008.19 1008.74 1009.72 1010.63 1011.31 1011.92 1012.84 1013.14 1013.37 1013.80 1014.05 1014.29 1014.49 1014.77 1015.16 1015.64 1016.13 1016.35 1016.34 1016.34 1016.16 1015.95 1015.20 1015.31 1014.84 1014.20 1013.42 1012.84 1012.33 1011.39 1010.48 1009.63 1009.15 1008.65 1007.78 1007.14 1006.33 1005.79 1005.50
1005.78 1006.51 1007.04 1007.63 1008.41 1009.05 1009.86 1010.27 1011.41 1012.19 1012.84 1013.28 1013.48 1013.91 1014.18 1014.46 1014.63 1014.87 1015.07 1015.49 1016.18 1016.41 1016.55 1016.56 1016.40 1016.11 1015.91 1015.62 1015.29 1014.85 1014.17 1013.21 1012.43 1011.61 1010.46 1009.60 1008.54 1007.84 1007.50 1006.33 1005.79 1004.98 1005.21 1005.52
1006.04 1007.07 1007.82 1008.05 1008.94 1009.65 1010.63 1011.44 1012.21 1013.10 1013.55 1013.89 1014.25 1014.45 1014.80 1014.83 1015.10 1015.41 1015.80 1015.92 1016.30 1016.67 1016.80 1016.58 1016.34 1016.11 1015.67 1015.48 1015.04 1014.52 1013.95 1013.14 1012.15 1010.89 1009.62 1008.78 1007.69 1006.83 1006.39 1005.70 1006.01 1005.77 1005.42 1005.68
1005.80 1006.60 1007.66 1008.08 1008.97 1010.01 1011.02 1011.98 1012.76 1013.40 1013.77 1014.40 1014.78 1015.03 1015.32 1015.35 1015.60 1015.80 1016.05 1015.99 1016.37 1016.68 1016.75 1016.76 1016.70 1016.35 1015.92 1015.55 1015.12 1014.50 1013.76 1012.99 1011.96 1010.81 1009.38 1008.49 1007.78 1007.15 1006.45 1006.13 1005.82 1005.84 1005.90 1006.22
1006.94 1007.43 1007.98 1008.68 1009.24 1010.36 1011.30 1012.27 1013.18 1013.62 1014.34 1014.69 1015.18 1015.34 1015.60 1015.61 1015.75 1016.05 1016.19 1016.35 1016.41 1016.74 1016.84 1016.87 1016.75 1016.41 1015.91 1015.42 1014.77 1014.17 1013.47 1012.64 1011.50 1010.49 1009.49 1008.81 1007.94 1007.32 1006.66 1005.66 1005.36 1005.27 1005.19 1005.71
1007.82 1008.38 1008.84 1009.22 1009.91 1010.89 1011.79 1012.75 1013.88 1014.01 1014.54 1014.96 1015.28 1015.54 1015.66 1015.89 1015.84 1015.99 1016.02 1016.22 1016.04 1016.67 1016.59 1016.55 1016.43 1016.14 1015.66 1015.24 1014.63 1013.88 1013.12 1012.43 1011.67 1010.50 1009.43 1008.79 1008.16 1007.40 1006.68 1006.28 1005.52 1005.35 1005.47 1005.57
1008.20 1008.69 1008.69 1009.57 1010.51 1011.41 1012.24 1013.05 1013.48 1013.87 1014.41 1014.91 1015.23 1015.55 1015.69 1015.77 1015.86 1015.92 1015.85 1015.83 1015.74 1016.13 1016.45 1016.32 1016.22 1015.79 1015.49 1015.05 1014.32 1013.57 1012.82 1011.88 1011.33 1010.79 1009.86 1009.15 1008.21 1007.37 1006.56 1005.78 1005.32 1004.74 1004.48 1004.85
1008.54 1008.87 1009.14 1009.76 1010.78 1011.62 1012.28 1012.78 1013.10 1013.58 1014.37 1014.73 1015.17 1015.56 1015.73 1015.74 1015.86 1015.97 1015.92 1015.88 1015.82 1015.78 1015.92 1015.84 1015.65 1015.49 1015.38 1014.87 1014.24 1013.67 1013.07 1012.53 1011.84 1010.87 1010.20 1009.51 1008.56 1007.86 1006.92 1006.27 1005.70 1005.49 1005.33 1005.50
1008.62 1009.07 1009.55 1010.05 1010.70 1011.49 1012.08 1012.62 1012.97 1013.38 1014.08 1014.65 1015.18 1015.54 1015.74 1015.79 1015.82 1015.95 1016.00 1015.87 1015.85 1015.69 1015.66 1015.49 1015.25 1015.27 1015.00 1014.76 1014.08 1013.88 1013.53 1012.98 1012.48 1011.78 1011.11 1010.59 1009.84 1009.12 1008.05 1006.68 1006.44 1006.07 1006.22 1006.12
1008.72 1009.01 1009.52 1010.10 1010.52 1011.23 1011.92 1012.59 1013.12 1013.56 1014.09 1014.51 1015.05 1015.39 1015.62 1015.78 1016.00 1016.00 1015.91 1015.97 1015.79 1015.71 1015.69 1015.47 1015.16 1014.68 1014.66 1014.71 1014.15 1013.72 1013.48 1013.21 1012.83 1012.42 1011.99 1011.36 1010.77 1010.14 1009.70 1009.07 1008.25 1007.78 1007.12 1006.67
1008.67 1009.11 1009.64 1010.24 1010.69 1011.23 1011.77 1012.34 1013.04 1013.39 1013.90 1014.49 1014.88 1015.03 1015.33 1015.50 1015.89 1015.97 1015.79 1015.88 1015.73 1015.56 1015.68 1015.44 1015.10 1014.33 1014.20 1014.61 1014.00 1013.82 1013.80 1013.37 1012.94 1012.66 1012.31 1011.98 1011.51 1011.30 1010.90 1010.32 1009.64 1009.36 1008.93 1008.49
1008.92 1009.40 1010.03 1010.66 1011.13 1011.48 1011.85 1012.22 1012.71 1013.24 1013.62 1014.12 1014.54 1014.75 1014.93 1015.12 1015.27 1015.67 1015.61 1015.40 1015.87 1016.06 1015.92 1015.54 1015.06 1014.33 1014.17 1013.84 1013.63 1013.16 1013.52 1013.49 1013.26 1013.08 1012.86 1012.41 1012.18 1011.96 1011.72 1011.32 1011.00 1010.57 1010.17 1009.68
1009.31 1009.91 1010.43 1010.90 1011.36 1011.76 1011.99 1012.13 1012.52 1012.95 1013.41 1013.79 1014.07 1014.27 1014.41 1014.75 1015.02 1015.16 1015.31 1014.71 1015.43 1015.80 1015.62 1015.44 1015.27 1014.92 1014.20 1014.05 1012.80 1012.43 1012.41 1012.84 1013.31 1013.34 1013.25 1013.14 1012.83 1012.38 1012.16 1011.91 1011.61 1011.40 1011.17 1010.88
1009.70 1010.12 1010.54 1010.88 1011.25 1011.60 1011.92 1012.13 1012.30 1012.63 1013.02 1013.33 1013.55 1013.74 1013.89 1013.99 1014.30 1014.45 1014.65 1014.78 1014.69 1015.49 1015.12 1014.86 1015.31 1015.46 1015.00 1014.41 1013.25 1012.68 1012.56 1012.32 1012.38 1012.68 1013.24 1013.32 1013.19 1012.97 1012.72 1012.53 1012.19 1011.88 1011.63 1011.40
1009.69 1010.07 1010.37 1010.70 1010.97 1011.25 1011.56 1011.93 1012.14 1012.27 1012.52 1012.78 1012.96 1013.18 1013.26 1013.20 1012.99 1012.92 1012.90 1013.99 1014.26 1014.80 1014.71 1014.50 1015.47 1015.43 1014.88 1013.96 1013.50 1013.17 1012.79 1012.67 1012.44 1012.22 1012.47 1012.83 1013.19 1013.06 1012.96 1012.70 1012.62 1012.25 1011.92 1011.79
1009.96 1010.12 1010.45 1010.50 1010.82 1011.17 1011.35 1011.44 1011.63 1011.73 1012.01 1012.35 1012.48 1012.59 1012.64 1012.44 1012.23 1012.21 1012.40 1013.17 1013.97 1014.19 1014.32 1014.30 1014.87 1015.17 1014.81 1013.62 1013.51 1013.27 1013.02 1012.94 1012.84 1012.47 1012.06 1012.30 1011.75 1011.84 1012.17 1012.42 1012.22 1012.35 1012.24 1012.11
1010.08 1010.27 1010.26 1010.45 1010.33 1010.52 1010.83 1011.13 1011.44 1011.37 1011.38 1011.43 1011.71 1011.78 1011.90 1011.87 1011.79 1011.60 1012.04 1012.44 1012.90 1013.44 1013.55 1013.89 1014.40 1014.56 1014.27 1013.21 1013.29 1013.16 1012.94 1012.71 1012.85 1012.66 1012.21 1011.89 1011.79 1011.38 1011.12 1011.37 1012.10 1012.35 1012.21 1012.26
1009.74 1009.59 1009.43 1009.96 1010.25 1009.55 1009.52 1010.18 1010.94 1010.60 1010.35 1010.36 1010.40 1010.24 1010.25 1010.49 1010.96 1011.64 1011.69 1011.86 1011.86 1012.73 1012.98 1013.01 1013.46 1013.43 1013.07 1012.70 1012.79 1012.61 1012.41 1012.22 1012.33 1012.23 1012.28 1011.85 1011.80 1011.64 1011.46 1011.27 1011.34 1012.15 1012.23 1012.06
1009.57 1009.18 1009.37 1008.65 1009.35 1009.10 1009.03 1009.38 1010.01 1010.28 1010.78 1010.61 1010.26 1009.95 1009.55 1009.68 1010.27 1010.62 1010.71 1010.75 1011.15 1011.34 1011.53 1011.77 1011.87 1012.11 1012.23 1012.11 1012.17 1011.91 1011.74 1011.70 1012.04 1012.07 1012.04 1011.77 1011.70 1011.61 1011.50 1011.49 1011.24 1011.54 1011.83 1011.76
Thickness
5812 5781 5780 5809 5813 5810 5801 5807 5791 5802 5797 5799 5785 5778 5772 5768 5764 5760 5760 5758 5754 5750 5748 5747 5746 5744 5745 5746 5749 5751 5751 5752 5754 5759 5760 5760 5760 5761 5763 5764 5767 5770 5771 5772
5797 5807 5806 5798 5808 5803 5800 5796 5793 5791 5783 5794 5778 5769 5763 5762 5757 5751 5748 5747 5743 5738 5736 5735 5734 5733 5733 5734 5737 5739 5740 5743 5747 5748 5748 5749 5751 5751 5753 5754 5756 5758 5760 5764
5779 5808 5793 5778 5797 5801 5795 5791 5783 5770 5773 5775 5763 5758 5755 5751 5748 5740 5734 5732 5729 5726 5725 5724 5723 5723 5724 5725 5726 5727 5728 5733 5737 5738 5736 5737 5740 5741 5743 5746 5748 5750 5754 5758
5778 5786 5743 5796 5799 5797 5785 5783 5782 5773 5765 5760 5755 5751 5749 5748 5734 5727 5725 5722 5721 5719 5718 5715 5714 5713 5711 5712 5714 5714 5716 5720 5724 5726 5726 5727 5728 5730 5734 5736 5738 5742 5748 5752
5764 5770 5784 5783 5780 5775 5767 5766 5777 5765 5760 5753 5748 5743 5731 5734 5727 5722 5719 5718 5715 5713 5709 5707 5705 5703 5698 5695 5695 5699 5701 5703 5707 5710 5710 5713 5716 5720 5726 5727 5731 5737 5742 5746
5766 5748 5741 5768 5774 5783 5775 5742 5773 5760 5750 5743 5740 5726 5716 5725 5721 5717 5713 5707 5702 5702 5702 5699 5695 5693 5689 5686 5683 5684 5685 5685 5689 5691 5695 5699 5704 5706 5713 5717 5720 5726 5730 5737
5758 5750 5771 5770 5768 5772 5730 5730 5752 5750 5740 5732 5723 5722 5719 5718 5712 5709 5704 5700 5696 5694 5690 5687 5681 5679 5676 5676 5675 5673 5673 5673 5673 5676 5679 5687 5692 5696 5700 5705 5710 5713 5718 5723
5759 5751 5741 5766 5755 5740 5741 5746 5742 5734 5729 5720 5717 5714 5711 5708 5703 5698 5693 5689 5685 5683 5680 5675 5669 5666 5667 5664 5664 5663 5663 5663 5664 5663 5667 5676 5681 5685 5690 5696 5700 5703 5707 5714
5754 5745 5757 5759 5751 5754 5751 5737 5730 5725 5722 5712 5707 5705 5701 5697 5694 5691 5687 5681 5676 5669 5664 5662 5659 5656 5654 5657 5651 5651 5651 5654 5655 5655 5659 5665 5671 5673 5678 5687 5692 5700 5705 5709
5745 5745 5746 5747 5747 5744 5738 5732 5723 5717 5710 5705 5700 5696 5691 5687 5684 5680 5677 5671 5664 5660 5655 5653 5651 5650 5647 5645 5643 5642 5643 5646 5648 5649 5655 5660 5668 5674 5676 5686 5691 5699 5698 5695
5740 5739 5738 5740 5736 5732 5725 5720 5712 5703 5698 5693 5688 5684 5678 5675 5671 5667 5662 5659 5654 5648 5645 5645 5645 5642 5642 5639 5638 5636 5635 5636 5640 5647 5653 5656 5664 5672 5676 5682 5679 5683 5685 5683
5732 5745 5732 5732 5733 5727 5715 5706 5700 5693 5689 5683 5677 5671 5667 5664 5661 5656 5652 5654 5647 5642 5639 5637 5633 5632 5632 5631 5629 5628 5627 5628 5632 5638 5647 5651 5654 5658 5666 5666 5668 5666 5665 5666
5734 5741 5736 5730 5729 5719 5707 5699 5691 5685 5678 5672 5667 5663 5658 5655 5653 5647 5645 5643 5640 5634 5631 5627 5625 5624 5624 5624 5625 5624 5624 5626 5631 5634 5639 5641 5645 5648 5649 5661 5660 5660 5659 5659
5735 5727 5716 5717 5708 5706 5698 5689 5675 5677 5671 5665 5660 5655 5651 5645 5645 5641 5639 5637 5639 5629 5628 5625 5621 5620 5619 5618 5619 5620 5621 5621 5623 5629 5635 5635 5637 5642 5645 5645 5649 5656 5652 5652
5724 5721 5720 5713 5704 5694 5688 5679 5672 5667 5661 5656 5653 5646 5642 5639 5636 5635 5636 5635 5635 5628 5622 5619 5616 5616 5613 5612 5614 5616 5619 5624 5623 5621 5626 5627 5633 5637 5642 5647 5648 5654 5661 5652
5715 5713 5710 5701 5691 5684 5678 5672 5666 5661 5653 5649 5643 5638 5635 5633 5631 5629 5628 5627 5624 5622 5619 5616 5614 5611 5607 5607 5609 5609 5610 5611 5612 5618 5619 5620 5625 5628 5635 5637 5641 5642 5645 5644
5701 5695 5694 5688 5684 5677 5671 5666 5661 5656 5648 5641 5635 5631 5627 5625 5624 5621 5620 5621 5619 5618 5615 5613 5611 5606 5605 5602 5604 5601 5600 5601 5601 5604 5606 5607 5610 5614 5621 5632 5632 5634 5633 5630
5703 5699 5694 5687 5681 5673 5666 5659 5653 5647 5639 5635 5629 5624 5620 5617 5613 5613 5614 5612 5612 5610 5608 5607 5607 5607 5603 5597 5598 5598 5595 5594 5594 5594 5594 5595 5598 5602 5602 5606 5612 5615 5620 5624
5698 5691 5687 5680 5675 5668 5661 5654 5645 5641 5634 5627 5621 5618 5615 5613 5608 5607 5608 5605 5604 5604 5601 5602 5601 5604 5601 5593 5594 5591 5588 5589 5589 5589 5589 5588 5590 5587 5587 5591 5595 5595 5597 5600
5687 5683 5676 5669 5664 5658 5651 5648 5641 5633 5629 5622 5617 5613 5610 5608 5607 5602 5602 5601 5596 5593 5593 5594 5596 5599 5596 5595 5592 5593 5586 5583 5583 5581 5580 5582 5580 5578 5577 5576 5577 5578 5579 5582
5675 5669 5662 5656 5650 5646 5642 5640 5633 5626 5622 5618 5612 5608 5606 5603 5601 5599 5595 5601 5594 5590 5590 5589 5588 5588 5591 5588 5595 5595 5591 5585 5578 5575 5572 5570 5570 5571 5570 5569 5568 5566 5565 5565
5663 5657 5652 5647 5642 5637 5634 5630 5627 5622 5617 5612 5610 5607 5604 5601 5598 5597 5595 5593 5595 5584 5588 5589 5582 5577 5578 5579 5586 5587 5585 5585 5582 5576 5567 5562 5560 5558 5557 5555 5555 5555 5554 5553
5655 5649 5644 5639 5635 5631 5627 5622 5618 5616 5612 5609 5606 5603 5601 5602 5602 5600 5600 5594 5592 5584 5585 5585 5573 5571 5572 5579 5579 5578 5579 5576 5576 5575 5568 5559 5550 5548 5545 5544 5541 5541 5541 5540
5642 5638 5633 5632 5628 5621 5615 5614 5614 5613 5609 5605 5604 5602 5599 5599 5601 5602 5601 5594 5584 5583 5581 5580 5573 5567 5565 5576 5574 5573 5572 5569 5567 5567 5566 5558 5558 5553 5545 5537 5535 5531 5529 5526
5630 5627 5625 5620 5618 5614 5611 5609 5605 5605 5605 5604 5601 5601 5599 5599 5597 5599 5596 5592 5587 5582 5581 5575 5569 5565 5567 5574 5570 5569 5568 5567 5562 5560 5559 5556 5551 5550 5547 5540 5528 5521 5516 5511
5622 5621 5621 5614 5609 5614 5613 5607 5597 5601 5603 5602 5603 5604 5604 5602 5598 5591 5591 5589 5591 5581 5579 5578 5572 5570 5572 5573 5570 5569 5568 5566 5561 5558 5553 5552 5546 5542 5537 5533 5527 5514 5507 5504
5611 5608 5607 5612 5605 5607 5607 5603 5598 5594 5589 5591 5593 5596 5600 5600 5595 5592 5592 5592 5589 5587 5585 5582 5579 5575 5573 5573 5570 5570 5569 5566 5558 5554 5551 5548 5542 5537 5532 5526 5522 5512 5503 5499